Nashua, NH

7:34 AM EDT on July 25, 2016 (GMT -0400)
Boire

Weather History for KASH - April, 2013

Change the Weather History Date:

Thursday, April 11, 2013

  Actual Average Record
Temperature  
Mean Temperature 44 °F -  
Max Temperature 50 °F 52 °F 79 °F (2011)
Min Temperature 39 °F 30 °F 18 °F (1950)
Degree Days  
Heating Degree Days 20    
Moisture  
Dew Point 38 °F    
Average Humidity 75    
Maximum Humidity 100    
Minimum Humidity 38    
Precipitation  
Precipitation 0.08 in - - ()
Sea Level Pressure  
Sea Level Pressure 30.46 in    
Wind  
Wind Speed 6 mph (North)    
Max Wind Speed 15 mph    
Max Gust Speed -    
Visibility 7 miles    
Events      
Averages and records for this station are not official NWS values.
T = Trace of Precipitation, MM = Missing Value Source: NWS Daily Summary

Daily Weather History Graph

Daily Weather History Graph

Search for Another Location

Airport or City:

Trip Planner

Search our weather history database for the weather conditions in past years. The results will help you decide how hot, cold, wet, or windy it might be!

Date:

Astronomy

Apr. 11, 2013 Rise Set
Actual Time 6:10 AM EDT 7:23 PM EDT
Civil Twilight 5:41 AM EDT 7:53 PM EDT
Nautical Twilight 5:06 AM EDT 8:28 PM EDT
Astronomical Twilight 4:30 AM EDT 9:05 PM EDT
Moon 6:38 AM EDT (4/11) 8:58 PM EDT (4/11)
Length of Visible Light 14h 11m
Length of Day
13h 13m
New Moon, 2% of the Moon is Illuminated
Apr 11
New Moon
Apr 18
First Quarter
Apr 25
Full
May 2
Last Quarter
May 9
New

Hourly Weather History & Observations

Time (EDT) Temp. Windchill Dew Point Humidity Pressure Visibility Wind Dir Wind Speed Gust Speed Precip Events Conditions
12:06 AM 48.2 °F - 46.4 °F 93% 29.89 in 1.8 mi NNE 6.9 mph - 0.01 in   Overcast
12:14 AM 48.2 °F - 46.4 °F 93% 29.89 in 3.0 mi NNE 5.8 mph - 0.02 in   Overcast
12:51 AM 47.8 °F - 45.9 °F 93% 30.63 in 1.8 mi Calm Calm - 0.04 in   Overcast
1:04 AM 48.2 °F - 46.4 °F 93% 29.89 in 2.0 mi NNE 3.5 mph - 0.01 in   Overcast
1:39 AM 48.2 °F - 46.4 °F 93% 29.89 in 2.0 mi Calm Calm - 0.02 in   Partly Cloudy
1:51 AM 47.8 °F - 45.9 °F 93% 30.61 in 2.5 mi North 5.8 mph - 0.03 in   Partly Cloudy
2:05 AM 48.2 °F - 46.4 °F 93% 29.86 in 3.0 mi North 5.8 mph - N/A   Clear
2:15 AM 48.2 °F - 46.4 °F 93% 29.86 in 4.0 mi North 5.8 mph - N/A   Partly Cloudy
2:38 AM 48.2 °F - 46.4 °F 93% 29.86 in 5.0 mi North 5.8 mph - N/A   Mostly Cloudy
2:51 AM 47.8 °F - 45.9 °F 93% 30.60 in 5.0 mi North 8.1 mph - N/A   Mostly Cloudy
2:58 AM 48.2 °F - 46.4 °F 93% 29.86 in 4.0 mi North 6.9 mph - N/A   Overcast
3:12 AM 46.4 °F 42.9 °F 46.4 °F 100% 29.86 in 2.0 mi North 6.9 mph - N/A   Overcast
3:51 AM 46.9 °F - 45.0 °F 93% 30.61 in 2.0 mi NNW 6.9 mph - 0.01 in   Mostly Cloudy
4:06 AM 46.4 °F 42.4 °F 44.6 °F 93% 29.87 in 5.0 mi North 8.1 mph - N/A   Overcast
4:51 AM 45.9 °F - 43.9 °F 93% 30.61 in 10.0 mi Calm Calm - N/A   Overcast
5:51 AM 45.9 °F 41.7 °F 43.0 °F 90% 30.64 in 10.0 mi NNW 8.1 mph - N/A   Overcast
6:51 AM 45.9 °F - 41.9 °F 86% 30.67 in 10.0 mi Calm Calm - N/A   Overcast
7:22 AM 46.4 °F 45.2 °F 42.8 °F 87% 29.95 in 10.0 mi North 3.5 mph - N/A   Overcast
7:51 AM 45.9 °F 42.3 °F 41.0 °F 83% 30.71 in 10.0 mi North 6.9 mph - N/A   Overcast
8:51 AM 46.9 °F - 39.9 °F 77% 30.71 in 10.0 mi North 6.9 mph - N/A   Overcast
10:51 AM 46.9 °F - 36.9 °F 68% 30.76 in 10.0 mi North 8.1 mph - N/A   Overcast
11:18 AM 48.2 °F - 37.4 °F 66% 30.02 in 10.0 mi North 5.8 mph - N/A   Overcast
11:51 AM 48.9 °F - 36.9 °F 63% 30.79 in 10.0 mi North 6.9 mph - N/A   Overcast
12:51 PM 50.9 °F - 32.0 °F 48% 30.78 in 10.0 mi NW 8.1 mph - N/A   Scattered Clouds
1:51 PM 48.9 °F - 28.0 °F 44% 30.78 in 10.0 mi NW 11.5 mph - N/A   Scattered Clouds
2:51 PM 47.8 °F - 23.0 °F 38% 30.79 in 10.0 mi NNW 15.0 mph - N/A   Mostly Cloudy
3:51 PM 47.8 °F - 23.0 °F 38% 30.78 in 10.0 mi NNW 5.8 mph - N/A   Overcast
4:51 PM 46.9 °F - 24.1 °F 41% 30.80 in 10.0 mi North 10.4 mph - N/A   Overcast
5:51 PM 45.0 °F 39.7 °F 25.2 °F 46% 30.83 in 10.0 mi North 10.4 mph - N/A   Overcast
6:51 PM 43.0 °F 36.0 °F 25.2 °F 49% 30.85 in 10.0 mi NNW 13.8 mph - N/A   Overcast
7:51 PM 41.9 °F 36.9 °F 28.0 °F 58% 30.85 in 10.0 mi NNW 8.1 mph - N/A   Mostly Cloudy
8:51 PM 41.0 °F 35.8 °F 29.1 °F 63% 30.87 in 10.0 mi North 8.1 mph - N/A   Mostly Cloudy
9:51 PM 41.0 °F - 29.1 °F 63% 30.88 in 10.0 mi Calm Calm - N/A   Overcast
10:51 PM 39.9 °F - 29.1 °F 65% 30.90 in 10.0 mi Calm Calm - N/A   Overcast
11:51 PM 41.0 °F - 30.0 °F 65% 30.90 in 10.0 mi Calm Calm - N/A   Mostly Cloudy